This is the latest recevied weather packets stored in our database for station/object SQ9RHX-13. If no packets are shown the sender has not sent any weather packets the latest 10 day(s).
| Time | Temp. | Humidity | Pressure | Rain* | Wind** | Luminosity | Snow |
|---|---|---|---|---|---|---|---|
| 1777934704 | 12.22° C | 85% | 1015.5 hPa | 0 mm | - | 0 W/m² | - |
| 1777934403 | 12.22° C | 85% | 1015.3 hPa | 0 mm | - | 0 W/m² | - |
| 1777934104 | 12.22° C | 85% | 1015.4 hPa | 0 mm | - | 0 W/m² | - |
| 1777933803 | 12.22° C | 84% | 1015.4 hPa | 0 mm | - | 0 W/m² | - |
| 1777933503 | 12.22° C | 83% | 1015.4 hPa | 0 mm | - | 0 W/m² | - |
| 1777933206 | 12.22° C | 83% | 1015.4 hPa | 0 mm | - | 0 W/m² | - |
| 1777932903 | 12.78° C | 83% | 1015.7 hPa | 0 mm | - | 0 W/m² | - |
| 1777932604 | 12.22° C | 83% | 1015.5 hPa | 0 mm | - | 0 W/m² | - |
| 1777932305 | 12.78° C | 82% | 1015.5 hPa | 0 mm | - | 0 W/m² | - |
| 1777932003 | 12.78° C | 81% | 1015.5 hPa | 0 mm | - | 0 W/m² | - |
| 1777931703 | 12.78° C | 81% | 1015.5 hPa | 0 mm | - | 0 W/m² | - |
| 1777931402 | 12.78° C | 81% | 1015.4 hPa | 0 mm | - | 0 W/m² | - |
| 1777931103 | 13.33° C | 81% | 1015.6 hPa | 0 mm | - | 0 W/m² | - |
| 1777930804 | 12.78° C | 81% | 1015.6 hPa | 0 mm | - | 0 W/m² | - |
| 1777930504 | 13.33° C | 79% | 1015.5 hPa | 0 mm | - | 0 W/m² | - |
| 1777930203 | 13.33° C | 79% | 1015.5 hPa | 0 mm | - | 0 W/m² | - |
| 1777929903 | 13.89° C | 78% | 1015.5 hPa | 0 mm | - | 0 W/m² | - |
| 1777929604 | 13.89° C | 77% | 1015.5 hPa | 0 mm | - | 0 W/m² | - |
| 1777929304 | 13.89° C | 76% | 1015.5 hPa | 0 mm | - | 0 W/m² | - |
| 1777929002 | 14.44° C | 75% | 1015.4 hPa | 0 mm | - | 0 W/m² | - |
| 1777928703 | 14.44° C | 74% | 1015.5 hPa | 0 mm | - | 0 W/m² | - |
| 1777928407 | 14.44° C | 73% | 1015.5 hPa | 0 mm | - | 0 W/m² | - |
| 1777928103 | 15° C | 72% | 1015.3 hPa | 0 mm | - | 0 W/m² | - |
| 1777927803 | 15° C | 71% | 1015.4 hPa | 0 mm | - | 0 W/m² | - |
| 1777927502 | 15.56° C | 70% | 1015.6 hPa | 0 mm | - | 0 W/m² | - |
* Rain latest hour (hover to see other rain measurements)
** Current wind speed in m/s (hover to see current wind gust speed)